Location: Augsbuur
(53.2665°N, 6.1609°E)
Time: 15:19:57
(UTC+00:00)

Daily predictions for brighter satellites

Satellite Brightness Start Highest point End
(mag) Time Altitude Azimuth Time Altitude Azimuth Time Altitude Azimuth
Cosmos 2341 Rocket 4.3 16:17:39 10° N 16:23:48 49° ENE 16:29:51 10° SE
Cosmos 2369 Rocket 3.1 16:19:31 10° NW 16:25:06 56° WSW 16:30:38 10° S
Cosmos 1850 Rocket 4.4 16:20:21 10° NNW 16:25:23 42° NE 16:30:26 10° SE
Cosmos 676 Rocket 4.0 16:23:52 10° NNW 16:29:05 90° ENE 16:34:19 10° SSE
NOSS 3-4 (A) 4.4 16:27:07 10° SSE 16:31:15 24° ESE 16:35:43 10° ENE
NOSS 3-4 (C) 4.4 16:27:17 10° SSE 16:31:26 24° ESE 16:35:53 10° ENE
Cosmos 332 Rocket 3.9 16:26:58 10° NNW 16:31:40 52° ENE 16:36:20 10° SE
CZ-2D R/B 3.5 16:29:32 10° SE 16:32:20 30° ENE 16:35:07 10° N
SJ 16-02 2.1 16:29:11 10° NNW 16:33:23 56° WSW 16:37:34 10° S
Thor Agena Rocket 3.5 16:29:29 10° SSE 16:34:28 70° ENE 16:39:30 10° NNW
UNK 4.3 16:30:18 10° NNE 16:34:32 37° E 16:38:44 10° SSE
ATLAS 3B R/B 3.5 16:27:40 10° WSW 16:35:16 53° NNW 16:42:59 10° NE
Cosmos 1943 3.6 16:30:09 10° S 16:35:30 47° ESE 16:40:56 10° NE
ATLAS 5 CENTAUR R/B 1.4 16:33:22 10° SSW 16:36:09 36° SE 16:39:10 10° ENE
SPOT 1/Viking Rocket 4.1 16:31:51 10° SE 16:36:29 35° ENE 16:41:08 10° N
Cosmos 1703 4.3 16:35:20 10° SE 16:37:47 20° E 16:40:15 10° NE
Nadezhda 1 Rocket 4.0 16:35:27 10° S 16:41:30 85° E 16:47:38 10° NNE
IRS-1C 4.2 16:37:40 10° SE 16:42:53 60° ENE 16:48:09 10° N
NOSS 3-1 (A) 4.4 16:37:42 10° WNW 16:43:03 34° N 16:49:39 10° ENE
SL-14 R/B 3.9 16:39:47 10° SSW 16:43:36 57° WNW 16:47:27 10° N
RESURS DK-1 4.4 16:44:49 10° ESE 16:45:18 10° ESE 16:45:48 10° E
YAOGAN 1 3.5 16:44:36 10° ESE 16:48:05 25° ENE 16:51:35 10° N
Cosmos 1515 Rocket 4.5 16:44:43 10° SSE 16:48:30 28° E 16:52:18 10° NNE
Landsat 7 3.7 16:44:07 10° SSE 16:48:45 77° ENE 16:53:26 10° NNW
IGS 5A 4.3 16:45:54 10° S 16:49:46 52° W 16:53:41 10° NNW
AQUARIUS 4.2 16:45:35 10° SE 16:49:53 54° ENE 16:54:13 10° N
SL-8 Rocket 4.0 16:44:52 10° N 16:51:07 72° ENE 16:57:16 10° SSE
Cosmos 1484 Rocket 3.7 16:48:58 10° S 16:52:11 45° W 16:55:26 10° NNW
ISS -1.7 16:51:11 10° S 16:53:29 18° SE 16:55:49 10° E
Cosmos 2237 Rocket 3.7 16:48:43 10° W 16:53:34 29° NW 16:58:26 10° NNE
MOS 1 Rocket 3.5 16:48:35 10° SSE 16:53:48 77° ENE 16:58:48 10° N
NOSS 2-1 (D) 4.0 16:51:12 10° NNW 16:53:51 25° NNE 16:56:19 13° E
Radarsat Rocket 4.4 16:49:32 10° ESE 16:55:00 37° ENE 17:00:16 10° N
Cosmos 2333 Rocket 4.2 16:52:23 10° NNW 16:55:14 14° N 16:58:04 10° NNE
CORIOLIS 4.4 16:50:18 10° SSE 16:55:42 79° WSW 17:01:11 10° NNW
SMAP 3.2 16:51:21 10° SSE 16:56:01 82° WSW 17:00:43 10° NNW
USA 276 4.1 16:55:25 10° SSE 16:56:12 11° SSE 16:57:00 10° SE
SAR-Lupe-4 3.9 16:52:53 10° SE 16:56:17 42° ENE 16:59:43 10° N
Dummy Sat-02 4.5 16:54:31 10° N 16:58:08 87° E 17:01:43 10° S
SL-16 R/B 2.7 16:52:41 10° SW 16:58:17 60° NW 17:03:55 10° NNE
NOSS 3-1 (C) 4.2 16:52:39 10° NW 16:58:33 43° NNE 17:05:56 10° E
Cosmos 2322 Rocket 4.2 16:58:52 10° NNW 17:01:27 13° N 17:03:59 10° NNE
Cosmos 864 Rocket 4.5 16:56:30 10° N 17:02:44 78° ENE 17:08:59 10° SSE
Resurs 01 Rocket 2.9 17:02:16 10° ESE 17:05:25 20° ENE 17:08:34 10° NNE
CZ-2D R/B 4.0 17:02:06 10° SE 17:05:30 31° ENE 17:08:53 10° N
Cosmos 1470 Rocket 3.4 17:02:05 10° N 17:06:25 82° E 17:10:45 10° SSE
ERS-1 4.4 17:01:37 10° SSE 17:06:34 75° ENE 17:11:37 10° NNW
SJ-12 3.7 17:05:46 10° SSE 17:09:34 84° ENE 17:13:26 10° NNW
Cosmos 1656 3.7 17:05:15 10° NNW 17:10:50 58° NE 17:16:18 10° SE
USA 229 DEB 4.5 17:05:38 10° W 17:11:42 41° NNW 17:17:37 14° NE
Cosmos 1953 2.1 17:08:01 10° N 17:11:45 89° E 17:15:27 10° S
USA 229 4.5 17:05:42 10° W 17:11:46 41° NNW 17:17:42 14° NE
Spot 4 Rocket 4.4 17:07:51 10° SE 17:12:40 42° ENE 17:17:28 10° N
Cosmos 1733 Rocket 4.4 17:10:15 10° NNE 17:13:21 18° ENE 17:14:03 18° ENE
Cosmos 1933 Rocket 3.7 17:10:11 10° N 17:14:29 49° ENE 17:18:44 10° SSE
Cosmos 1821 Rocket 3.9 17:09:44 10° N 17:15:58 67° ENE 17:22:04 10° SSE
Meteor 1-23 Rocket 4.2 17:12:02 10° S 17:17:36 61° E 17:23:08 10° NNE
Meteor 1-16 Rocket 4.0 17:13:49 10° N 17:19:10 76° ENE 17:24:33 10° SSE
Meteor 1-28 Rocket 3.9 17:19:01 10° N 17:22:11 45° WNW 17:25:20 10° SW
Cosmos 1340 Rocket 2.8 17:19:40 10° N 17:23:23 48° ENE 17:27:06 10° SSE
Cosmos 2056 Rocket 3.8 17:20:46 10° SW 17:25:51 66° WNW 17:30:58 10° NNE
IRS-P3 4.1 17:21:26 10° SSE 17:26:45 89° WSW 17:32:07 10° NNW
Cosmos 1980 Rocket 3.3 17:22:33 10° NNW 17:27:02 24° NNE 17:28:53 20° ENE
Cosmos 292 Rocket 3.6 17:23:12 10° NNW 17:27:56 80° ENE 17:32:37 10° SSE
COSMO-SKYMED 1 3.3 17:27:24 22° ENE 17:28:56 28° E 17:32:31 10° SSE
Meteor 1-21 4.1 17:24:37 10° S 17:30:10 69° E 17:35:45 10° NNE
ARIANE 5 R/B 3.2 17:27:08 10° S 17:32:18 61° WSW 17:37:28 10° NNW
Cosmos 2181 Rocket 3.9 17:30:19 10° S 17:36:26 73° E 17:42:41 10° NNE
CARTOSAT-1 3.8 17:36:31 10° SE 17:40:30 43° ENE 17:44:31 10° N
USA 267 3.2 17:35:59 18° E 17:41:08 77° NNE 17:47:41 10° WNW
Cosmos 1869 Rocket 3.5 17:36:49 10° N 17:41:13 63° ENE 17:45:32 10° SSE
SL-16 R/B 3.5 17:35:27 10° N 17:41:18 46° WNW 17:47:07 10° SW
Meteor 2-15 Rocket 4.4 17:37:53 10° N 17:44:04 73° ENE 17:50:11 10° SSE
DNEPR-1 R/B 3.8 17:40:20 10° SSW 17:44:33 48° SE 17:46:01 33° ENE
Cosmos 2219 Rocket 4.2 17:44:20 10° NNW 17:46:48 13° N 17:48:58 11° NNE
Cosmos 1697 Rocket 2.9 17:46:06 10° NNW 17:51:36 48° NE 17:54:36 25° ESE
Meteor 2-13 Rocket 4.4 17:46:22 10° S 17:52:32 79° E 17:58:43 10° NNE
SL-24 R/B - RUBIN 2 4.4 17:49:28 10° NW 17:53:41 49° SW 17:57:55 10° SSE
Resurs 1-3 3.5 17:50:18 10° SSE 17:54:36 87° WSW 17:58:57 10° NNW
Cosmos 2360 Rocket 4.1 17:53:23 10° NNW 17:56:10 14° N 17:57:21 13° NNE
Cosmos 1934 Rocket 4.0 17:51:06 10° N 17:57:06 54° ENE 18:03:09 10° SSE
SL-16 R/B 3.9 17:53:39 10° NNW 17:57:13 17° NNE 17:57:52 16° NNE
SL-19 R/B 4.5 17:51:06 10° SSE 17:57:19 78° ENE 18:03:39 10° NNW
Okean 3 3.4 17:53:44 10° S 17:57:41 55° E 17:58:57 37° NE
YAOGAN 3 4.5 17:53:48 10° SSE 17:57:56 56° ENE 18:02:05 10° N
Cosmos 1603 3.6 17:52:31 10° SSW 17:58:10 87° ESE 18:02:06 21° NNE
Cosmos 1331 Rocket 3.9 17:54:51 10° SSW 17:59:59 85° WNW 18:03:49 19° NNE
Cosmos 1833 Rocket 3.7 17:58:48 10° SSE 18:02:47 27° ESE 18:02:47 27° ESE
USA 59 Rocket -0.6 18:01:36 10° NW 18:04:49 80° NE 18:05:27 58° ESE
COSMOS 2455 3.0 17:59:18 10° NW 18:05:13 51° NE 18:07:25 35° E
NOSS 2-1 (E) 3.0 18:05:47 10° NW 18:08:49 63° NNE 18:08:49 63° NNE
PSLV R/B 3.4 18:05:14 10° SSE 18:09:23 85° WSW 18:13:36 10° NNW
NOSS 2-1 (C) 2.8 18:07:38 10° NW 18:10:48 75° NE 18:10:48 75° NE
Okean 2 3.3 18:07:09 10° SSW 18:10:59 76° W 18:13:12 24° N
Cosmos 1302 Rocket 4.0 18:06:15 10° S 18:11:23 59° ESE 18:13:11 38° NE
SKYMED 2 3.7 18:08:22 13° NNE 18:12:14 76° WNW 18:16:34 10° SSW
Cosmos 1110 Rocket 4.4 18:13:15 10° SW 18:18:24 61° WNW 18:22:02 20° NNE
ATLAS 5 CENTAUR R/B 2.1 18:15:39 10° W 18:18:29 31° NNW 18:18:39 31° NNW
Cosmos 1943 4.2 18:14:16 10° WSW 18:19:38 43° NW 18:23:46 17° NNE
Nadezhda 3 Rocket 3.8 18:14:57 10° S 18:21:05 83° E 18:27:18 10° NNE
NOSS 3-4 (A) 3.2 18:15:56 10° SW 18:21:18 83° NW 18:23:42 38° NE
NOSS 3-4 (C) 3.2 18:16:04 10° SW 18:21:28 84° NW 18:23:52 38° NE
RESURS DK-1 2.2 18:17:57 10° SSW 18:21:44 72° SSE 18:21:44 72° SSE
YAOGAN 1 3.5 18:19:36 10° S 18:23:43 47° W 18:27:52 10° NNW
ATLAS 3B R/B 3.8 18:20:21 10° WNW 18:27:39 39° N 18:30:46 29° NE
NOAA 6 4.2 18:23:43 10° S 18:28:49 70° WSW 18:33:57 10° NNW
ISS -2.4 18:26:32 10° WSW 18:28:48 36° SW 18:28:48 36° SW
Cosmos 1452 Rocket 3.8 18:26:12 10° SW 18:31:26 66° WNW 18:34:20 27° NNE
Cosmos 1535 Rocket 4.5 18:26:21 10° N 18:32:44 63° ENE 18:37:18 20° SSE
Cosmos 1486 Rocket 4.3 18:29:30 10° NNW 18:34:06 49° NNE 18:34:06 49° NNE
NOSS 3-1 (A) 3.9 18:28:45 10° NW 18:35:07 57° NNE 18:37:03 45° E
Cosmos 1992 Rocket 4.3 18:34:28 10° S 18:38:29 48° SSE 18:38:29 48° SSE
Cosmos 2237 Rocket 4.4 18:36:42 10° NW 18:39:36 14° NNW 18:41:42 12° NNE
Resurs 01 Rocket 1.8 18:37:00 10° S 18:41:21 69° WSW 18:45:44 10° NNW
Cosmos 2333 Rocket 3.8 18:37:34 10° NNW 18:40:57 20° NNE 18:40:57 20° NNE
NOSS 2-1 (D) 4.0 18:39:32 10° NW 18:42:05 47° W 18:42:05 47° W
SL-16 R/B 4.2 18:39:26 10° WNW 18:43:35 20° NNW 18:46:44 14° N
Cosmos 2322 Rocket 4.0 18:43:58 10° NNW 18:46:50 18° N 18:46:50 18° N
USA 215 3.5 18:47:35 47° SE 18:48:00 48° SE 18:54:17 10° SSW
BREEZE-M DEB (TANK) 3.9 18:46:16 10° SW 18:48:38 44° S 18:48:38 44° S
NOSS 3-1 (C) 3.8 18:43:17 10° NW 18:50:01 88° SW 18:53:19 40° SE
Cosmos 1733 Rocket 3.4 18:47:08 10° NNW 18:51:06 63° WNW 18:51:06 63° WNW
Meteor 2-19 Rocket 4.3 18:54:49 10° S 19:00:56 81° E 19:01:50 66° NNE
USA 229 DEB 4.5 18:57:50 10° WNW 19:04:13 39° NNE 19:05:01 38° NNE
USA 229 4.5 18:57:54 10° WNW 19:04:18 39° NNE 19:05:06 38° NNE
COSMO-SKYMED 1 3.8 19:03:42 35° NW 19:04:19 37° WNW 19:08:07 10° SW
Cosmos 1605 Rocket 4.0 19:01:40 10° NNW 19:08:06 86° W 19:10:33 41° S
Cosmos 1980 Rocket 2.5 19:06:17 10° NNW 19:10:40 55° NNW 19:10:40 55° NNW
USA 267 3.6 19:23:20 52° S 19:24:23 57° SW 19:30:50 10° WNW
Cosmos 2219 Rocket 4.3 19:28:58 10° NNW 19:30:40 16° N 19:30:40 16° N
Cosmos 1697 Rocket 3.8 19:30:15 10° NW 19:35:31 40° WSW 19:36:24 38° SW
Cosmos 2360 Rocket 4.2 19:37:25 10° NNW 19:39:05 17° N 19:39:05 17° N
SL-16 R/B 4.0 19:37:33 10° NNW 19:39:43 22° NNW 19:39:43 22° NNW
Cosmos 1833 Rocket 4.0 19:41:23 10° SW 19:44:31 34° SW 19:44:31 34° SW
COSMOS 2455 3.7 19:45:26 10° NW 19:50:35 45° W 19:50:35 45° W
USA 59 Rocket 3.0 19:51:01 10° W 19:51:08 10° W 19:51:08 10° W
BREEZE-M DEB (TANK) 4.4 20:01:56 10° W 20:05:44 61° SW 20:05:44 61° SW
ATLAS 3B R/B 3.8 20:12:21 10° NW 20:18:01 42° NNW 20:18:01 42° NNW
